| time (UTC) | temp F | wind direction | speed MPH | gust MPH | rain 1hr in | rain 24hr in | rain mn in | humidity % | barometer mb |
| 20260504185040 | 71 | 225 | 5.0 | 11.0 | 0.00 | 0.00 | 0.00 | 44 | 1004.3 |
| 20260504184019 | 70 | 270 | 10.0 | 18.0 | 0.00 | 0.00 | 0.00 | 44 | 1004.4 |
| 20260504183059 | 71 | 248 | 8.0 | 16.0 | 0.00 | 0.00 | 0.00 | 43 | 1004.6 |
| 20260504182020 | 70 | 248 | 6.0 | 14.0 | 0.00 | 0.00 | 0.00 | 46 | 1004.6 |
| 20260504181020 | 70 | 270 | 9.0 | 19.0 | 0.00 | 0.00 | 0.00 | 47 | 1004.6 |
| 20260504180019 | 69 | 270 | 8.0 | 15.0 | 0.00 | 0.00 | 0.00 | 47 | 1004.8 |
| 20260504175019 | 69 | 270 | 10.0 | 20.0 | 0.00 | 0.00 | 0.00 | 48 | 1004.7 |
| 20260504174040 | 69 | 270 | 9.0 | 21.0 | 0.00 | 0.00 | 0.00 | 49 | 1004.8 |
| 20260504173019 | 69 | 270 | 6.0 | 16.0 | 0.00 | 0.00 | 0.00 | 50 | 1004.8 |
| 20260504172020 | 68 | 248 | 8.0 | 16.0 | 0.00 | 0.00 | 0.00 | 51 | 1004.8 |
| 20260504171019 | 68 | 248 | 7.0 | 13.0 | 0.00 | 0.00 | 0.00 | 50 | 1004.8 |
| 20260504151059 | 63 | 248 | 7.0 | 16.0 | 0.00 | 0.00 | 0.00 | 56 | 1006.0 |
| 20260504141019 | 61 | 203 | 5.0 | 13.0 | 0.00 | 0.00 | 0.00 | 55 | 1005.9 |
| 20260504081019 | 51 | 225 | 4.0 | 10.0 | 0.00 | 0.00 | 0.00 | 58 | 1007.2 |
| 20260504050020 | 51 | 248 | 3.0 | 11.0 | 0.00 | 0.00 | 0.00 | 59 | 1008.3 |
| 20260504045020 | 51 | 225 | 2.0 | 7.0 | 0.00 | 0.00 | 0.00 | 60 | 1008.3 |
| 20260504044019 | 51 | 203 | 2.0 | 5.0 | 0.00 | 0.00 | 0.00 | 60 | 1008.3 |
| 20260504043038 | 51 | 203 | 1.0 | 5.0 | 0.00 | 0.00 | 0.00 | 59 | 1008.4 |
| 20260504042020 | 52 | 203 | 2.0 | 9.0 | 0.00 | 0.00 | 0.00 | 58 | 1008.3 |
| 20260504041020 | 52 | 225 | 3.0 | 7.0 | 0.00 | 0.00 | 0.00 | 57 | 1008.4 |
| 20260504040020 | 52 | 248 | 2.0 | 7.0 | 0.00 | 0.00 | 0.00 | 57 | 1008.4 |
| 20260504035019 | 53 | 225 | 4.0 | 12.0 | 0.00 | 0.00 | 0.00 | 56 | 1008.4 |
| 20260504034019 | 53 | 225 | 4.0 | 11.0 | 0.00 | 0.00 | 0.00 | 57 | 1008.3 |
| 20260504033020 | 53 | 225 | 3.0 | 7.0 | 0.00 | 0.00 | 0.00 | 56 | 1008.3 |
| 20260504032020 | 53 | 180 | 4.0 | 15.0 | 0.00 | 0.00 | 0.00 | 56 | 1008.4 |
| 20260504031019 | 53 | 225 | 3.0 | 7.0 | 0.00 | 0.00 | 0.00 | 56 | 1008.4 |
| 20260504030040 | 53 | 248 | 2.0 | 7.0 | 0.00 | 0.00 | 0.00 | 55 | 1008.3 |
| 20260504025020 | 54 | 248 | 3.0 | 8.0 | 0.00 | 0.00 | 0.00 | 54 | 1008.4 |
| 20260504024019 | 54 | 225 | 4.0 | 9.0 | 0.00 | 0.00 | 0.00 | 54 | 1008.5 |
| 20260504023039 | 54 | 270 | 5.0 | 11.0 | 0.00 | 0.00 | 0.00 | 54 | 1008.4 |
| 20260504022019 | 54 | 270 | 7.0 | 14.0 | 0.00 | 0.00 | 0.00 | 54 | 1008.5 |
| 20260504021020 | 54 | 248 | 4.0 | 11.0 | 0.00 | 0.00 | 0.00 | 55 | 1008.6 |
| 20260504020019 | 54 | 203 | 3.0 | 8.0 | 0.00 | 0.00 | 0.00 | 53 | 1008.7 |
| 20260504015019 | 54 | 225 | 3.0 | 7.0 | 0.00 | 0.00 | 0.00 | 53 | 1008.7 |
| 20260504014019 | 55 | 248 | 5.0 | 12.0 | 0.00 | 0.00 | 0.00 | 52 | 1008.9 |
| 20260504013019 | 54 | 248 | 5.0 | 10.0 | 0.00 | 0.00 | 0.00 | 52 | 1008.8 |
| 20260504012019 | 55 | 270 | 7.0 | 17.0 | 0.00 | 0.00 | 0.00 | 52 | 1008.8 |
| 20260504011019 | 55 | 248 | 7.0 | 17.0 | 0.00 | 0.00 | 0.00 | 51 | 1008.7 |
| 20260504010019 | 55 | 270 | 6.0 | 16.0 | 0.00 | 0.00 | 0.00 | 53 | 1008.5 |
| 20260504005019 | 55 | 248 | 8.0 | 16.0 | 0.00 | 0.00 | 0.00 | 53 | 1008.4 |
| 20260504004019 | 54 | 248 | 9.0 | 19.0 | 0.00 | 0.00 | 0.00 | 53 | 1008.8 |
| 20260504003019 | 54 | 270 | 7.0 | 16.0 | 0.00 | 0.00 | 0.00 | 55 | 1008.8 |
| 20260504002019 | 54 | 270 | 12.0 | 26.0 | 0.00 | 0.00 | 0.00 | 55 | 1008.8 |
| 20260504001019 | 54 | 270 | 8.0 | 17.0 | 0.00 | 0.00 | 0.00 | 55 | 1009.0 |
| 20260504000019 | 54 | 270 | 12.0 | 19.0 | 0.00 | 0.00 | 0.00 | 53 | 1008.8 |
| 20260503235019 | 54 | 270 | 10.0 | 15.0 | 0.00 | 0.00 | 0.00 | 51 | 1008.8 |
| 20260503234119 | 54 | 270 | 8.0 | 13.0 | 0.00 | 0.00 | 0.00 | 52 | 1008.6 |
| 20260503233019 | 54 | 270 | 10.0 | 19.0 | 0.00 | 0.00 | 0.00 | 51 | 1008.5 |
| 20260503232019 | 54 | 270 | 10.0 | 18.0 | 0.00 | 0.00 | 0.00 | 52 | 1008.5 |
| 20260503231019 | 54 | 270 | 12.0 | 25.0 | 0.00 | 0.00 | 0.00 | 52 | 1008.6 |
| 20260503230039 | 55 | 270 | 10.0 | 17.0 | 0.00 | 0.00 | 0.00 | 50 | 1008.6 |
| 20260503225019 | 55 | 270 | 11.0 | 19.0 | 0.00 | 0.00 | 0.00 | 52 | 1008.6 |
| 20260503224019 | 55 | 270 | 13.0 | 26.0 | 0.00 | 0.00 | 0.00 | 52 | 1008.6 |
| 20260503223039 | 55 | 270 | 8.0 | 15.0 | 0.00 | 0.00 | 0.00 | 52 | 1008.5 |
| 20260503222019 | 56 | 270 | 11.0 | 28.0 | 0.00 | 0.00 | 0.00 | 49 | 1008.5 |
| 20260503221019 | 56 | 270 | 14.0 | 26.0 | 0.00 | 0.00 | 0.00 | 46 | 1008.2 |
| 20260503220019 | 57 | 270 | 9.0 | 15.0 | 0.00 | 0.00 | 0.00 | 47 | 1008.1 |
| 20260503215019 | 56 | 270 | 10.0 | 29.0 | 0.00 | 0.00 | 0.00 | 46 | 1008.2 |
| 20260503214019 | 56 | 270 | 10.0 | 17.0 | 0.00 | 0.00 | 0.00 | 47 | 1008.2 |
| 20260503213019 | 57 | 270 | 12.0 | 18.0 | 0.00 | 0.00 | 0.00 | 46 | 1008.2 |
| 20260503212018 | 57 | 270 | 10.0 | 28.0 | 0.00 | 0.00 | 0.00 | 46 | 1008.1 |
| 20260503211038 | 57 | 270 | 10.0 | 19.0 | 0.00 | 0.00 | 0.00 | 46 | 1008.1 |
| 20260503210019 | 57 | 270 | 12.0 | 23.0 | 0.00 | 0.00 | 0.00 | 45 | 1008.2 |
| 20260503205019 | 57 | 270 | 11.0 | 17.0 | 0.00 | 0.00 | 0.00 | 46 | 1008.2 |
| 20260503204039 | 58 | 270 | 7.0 | 13.0 | 0.00 | 0.00 | 0.00 | 46 | 1008.3 |
| 20260503203059 | 57 | 270 | 9.0 | 18.0 | 0.00 | 0.00 | 0.00 | 47 | 1008.6 |
| 20260503202018 | 57 | 270 | 11.0 | 25.0 | 0.00 | 0.00 | 0.00 | 45 | 1008.6 |
| 20260503201038 | 57 | 270 | 11.0 | 26.0 | 0.00 | 0.00 | 0.00 | 47 | 1008.8 |
| 20260503200019 | 56 | 270 | 11.0 | 18.0 | 0.00 | 0.00 | 0.00 | 46 | 1008.8 |
| 20260503195018 | 57 | 270 | 12.0 | 20.0 | 0.00 | 0.00 | 0.00 | 44 | 1009.0 |
| 20260503194018 | 56 | 270 | 9.0 | 18.0 | 0.00 | 0.00 | 0.00 | 47 | 1009.1 |
| 20260503193018 | 55 | 270 | 9.0 | 15.0 | 0.00 | 0.00 | 0.00 | 47 | 1009.3 |
| 20260503192018 | 55 | 270 | 7.0 | 15.0 | 0.00 | 0.00 | 0.00 | 47 | 1009.5 |
| 20260503191018 | 54 | 270 | 8.0 | 21.0 | 0.00 | 0.00 | 0.00 | 44 | 1009.6 |
| 20260503190020 | 54 | 270 | 10.0 | 16.0 | 0.00 | 0.00 | 0.00 | 45 | 1009.7 |